Location: D�pe
(52.6057°N, 8.1808°E)
Time: 07:22:57
(UTC+00:00)

COSMOS 2455 - Pass Details

Date: 29 October 2020
Orbit: 899 x 911 km, 67.1° (Epoch: 01 December)

Event Time Altitude Azimuth Distance (km) Brightness Sun altitude
Rises 18:10:19 0° 311° (NW) 3,551 6.8 -19.9°
Reaches altitude 10° 18:13:22 10° 325° (NW) 2,608 5.7 -20.4°
Maximum altitude 18:18:13 24° 18° (NNE) 1,791 4.2 -21.1°
Enters shadow 18:19:44 22° 40° (NE) 1,887 4.2 -21.3°
